Time+12,TemperatureF,Dew PointF,Humidity,Sea Level PressureIn,VisibilityMPH,Wind Direction,Wind SpeedMPH,Gust SpeedMPH,PrecipitationIn,Events,Conditions,WindDirDegrees,DateUTC
12:00 AM,79,76,88,29.87,12,SE,5.8,,,,Mostly Cloudy,140,2013-02-14 12:00:00
12:00 AM,78.8,77.0,94,29.86,24.9,SE,5.8,-,N/A,,Scattered Clouds,140,2013-02-14 12:00:00
1:00 AM,78.8,77.0,94,29.83,24.9,East,5.8,-,N/A,,Scattered Clouds,90,2013-02-14 13:00:00
2:00 AM,77.0,75.2,94,29.83,24.9,SSE,5.8,-,N/A,,Scattered Clouds,150,2013-02-14 14:00:00
3:00 AM,78,75,88,29.82,12,ENE,3.5,,,,Scattered Clouds,60,2013-02-14 15:00:00
3:00 AM,77.0,75.2,94,29.80,24.9,ENE,3.5,-,N/A,,Partly Cloudy,60,2013-02-14 15:00:00
4:00 AM,78.8,73.4,83,29.80,24.9,ESE,5.8,-,N/A,,Scattered Clouds,110,2013-02-14 16:00:00
5:00 AM,78.8,73.4,83,29.80,24.9,SSE,5.8,-,N/A,,Scattered Clouds,160,2013-02-14 17:00:00
6:00 AM,76,74,93,29.84,12,SSE,5.8,,,,Partly Cloudy,150,2013-02-14 18:00:00
6:00 AM,77.0,75.2,94,29.83,28.0,SSE,5.8,-,N/A,,Mostly Cloudy,150,2013-02-14 18:00:00
7:00 AM,78.8,73.4,83,29.83,31.1,Calm,Calm,-,N/A,,Mostly Cloudy,0,2013-02-14 19:00:00
8:00 AM,82.4,75.2,79,29.86,31.1,ESE,3.5,-,N/A,,Mostly Cloudy,110,2013-02-14 20:00:00
9:00 AM,82,76,79,29.87,12,Calm,Calm,,,,Partly Cloudy,,2013-02-14 21:00:00
9:00 AM,82.4,77.0,84,29.86,28.0,Calm,Calm,-,N/A,,Mostly Cloudy,0,2013-02-14 21:00:00
10:00 AM,82.4,77.0,84,29.86,28.0,NW,3.5,-,N/A,,Mostly Cloudy,310,2013-02-14 22:00:00
11:00 AM,84.2,77.0,79,29.83,28.0,West,3.5,-,N/A,,Mostly Cloudy,270,2013-02-14 23:00:00
12:00 PM,86,77,68,29.83,12,West,5.8,,,,Partly Cloudy,270,2013-02-15 00:00:00
12:00 PM,86.0,77.0,74,29.80,6.2,West,5.8,-,N/A,,Overcast,270,2013-02-15 00:00:00
1:00 PM,86.0,77.0,74,29.80,31.1,WNW,8.1,-,N/A,,Mostly Cloudy,290,2013-02-15 01:00:00
2:00 PM,86.0,77.0,74,29.77,24.9,WSW,3.5,-,N/A,Rain,Light Rain Showers,250,2013-02-15 02:00:00
3:00 PM,85,78,73,29.79,12,WNW,10.4,,,Rain-Thunderstorm,Thunderstorms and Rain,300,2013-02-15 03:00:00
3:00 PM,86.0,77.0,74,29.77,24.9,WNW,10.4,-,N/A,Rain-Thunderstorm,Light Thunderstorms and Rain,300,2013-02-15 03:00:00
4:00 PM,86.0,77.0,74,29.77,31.1,WNW,8.1,-,N/A,Thunderstorm,Thunderstorm,300,2013-02-15 04:00:00
4:30 PM,86.0,77.0,74,29.80,0.6,South,17.3,-,N/A,Rain-Thunderstorm,Heavy Thunderstorms and Rain,170,2013-02-15 04:30:00
5:00 PM,82.4,68.0,62,29.80,0.2,SE,13.8,-,N/A,Rain-Thunderstorm,Heavy Thunderstorms and Rain,130,2013-02-15 05:00:00
5:25 PM,82.4,68.0,62,29.80,3.1,SSE,10.4,-,N/A,Rain-Thunderstorm,Thunderstorms and Rain,150,2013-02-15 05:25:00
5:45 PM,82.4,68.0,62,29.80,6.2,SSE,5.8,-,N/A,Rain-Thunderstorm,Light Thunderstorms and Rain,150,2013-02-15 05:45:00
6:00 PM,75,73,91,29.81,12,ESE,8.1,,,Rain,Light Rain,120,2013-02-15 06:00:00
6:00 PM,75.2,73.4,94,29.80,18.6,ESE,8.1,-,N/A,Rain,Light Rain,120,2013-02-15 06:00:00
7:00 PM,75.2,73.4,94,29.80,31.1,East,6.9,-,N/A,,Mostly Cloudy,100,2013-02-15 07:00:00
8:00 PM,75.2,73.4,94,29.83,24.9,Calm,Calm,-,N/A,,Mostly Cloudy,0,2013-02-15 08:00:00
9:00 PM,74,74,100,29.82,12,ESE,5.8,,,,Partly Cloudy,120,2013-02-15 09:00:00
9:00 PM,75.2,75.2,100,29.80,24.9,ESE,5.8,-,N/A,,Mostly Cloudy,120,2013-02-15 09:00:00
10:00 PM,75.2,75.2,100,29.83,24.9,Calm,Calm,-,N/A,,Mostly Cloudy,0,2013-02-15 10:00:00
11:00 PM,75.2,75.2,100,29.83,24.9,SSE,5.8,-,N/A,,Mostly Cloudy,160,2013-02-15 11:00:00